Weather in Stekhny

Russia / Pskov Oblast     57°07′28″N   28°01′40″E
temp.,
°C
wind,
m/s
gust,
m/s
humid.,
%
clouds,
%
prec.,
mm/h
press.,
hPa
HPBL,
m
13 june, sun
sun1300:00+15ssw2492100 0.1 100280
03:00+13w3598100 0.1 1001126
06:00+12wnw41093100 0.3 1002458
09:00+12wnw2495100 0.4 1003206
12:00+13sw1293100 0.6 1005180
15:00+14ese1190100 1.3 1006167
18:00+15nnw2489100 0.1 1008305
21:00+14nnw5119188 0.3 1010715
14 june, mon
mon1400:00+12nnw4129388 0.0 1012549
03:00+10nnw31196100 0.0 1014344
06:00+10nnw310925 0.0 1016328
09:00+15n46703 0.0 1017593
12:00+19nne445222 0.0 10181345
15:00+21n22465 0.0 10171466
18:00+21n11465 0.0 10171199
21:00+16sse116513 0.0 101611
15 june, tue
tue1500:00+13sw227614 0.0 101624
03:00+11sw34815 0.0 101547
06:00+11sw3981100 0.0 1015203
09:00+16sw5966100 0.0 1014494
12:00+19sw6864100 0.0 10131064
15:00+20wsw6771100 0.1 10121214
18:00+16w4891100 1.1 1012574
21:00+15wnw2693100 1.2 1013195
16 june, wed
wed1600:00+10wnw39900 0.0 1015164
03:00+8wnw37960 0.0 1016144
06:00+9nw26943 0.0 1018179
09:00+15n35695 0.0 1020521
12:00+19nne344618 0.0 10211516
15:00+21n3340100 0.0 10211626
18:00+20ne344823 0.0 10211073
21:00+16ene116957 0.0 102210
17 june, thu
thu1700:00+12ese00705 0.0 102310
03:00+11s11725 0.0 102510
06:00+12ssw11753 0.0 102514
09:00+18s12565 0.0 1025337
12:00+23ssw22425 0.0 10251329
15:00+25wsw23390 0.0 10251689
18:00+24wnw22470 0.0 1024997
21:00+19nw11690 0.0 102411